Find Starlink 31967

NORAD ID: 60021 Int'l Des: 2024-111 Owner: SPXS Country: US Constellation: starlink operational
LEOCIRCULAR

Current View

Loading 3D Globe...

About Starlink 31967

Starlink 31967 (NORAD 60021) is a starlink constellation satellite (v2 mini) launched Jun 8, 2024 by SPXS of US. It operates in LEO, CIRCULAR orbit with a mass of 730.00 kg.

About Starlink 31967

Description loading...

Upcoming Passes

Passes for default location (London). Set your location on the main map for personalized predictions.

Altitude History

Loading altitude history...

Two-Line Element Set

1 60021U 24111F 26170.73118142 .00000195 00000-0 16907-4 0 9993
2 60021 53.1601 319.7318 0000943 89.9995 270.1116 15.34396688114696
Epoch: Jun 19, 2026 • Age: 29 hours

Current Status

Altitude 463.7 km
Velocity 7.64 km/s
Sub-Earth Point 28.18°N, 133.21°W
Launch Date Jun 8, 2024
Age 2 years
Type internet

Technical Details

Classification Payload
Mass 730.00 kg
Dry Mass 700.00 kg
Total Mass 730.00 kg
Length 0.30 m
Diameter 4.10 m
Span 29.00 m
Shape Box + pan
Manufacturer SPXS
Bus Type Starlink V2M
Phase Status In Orbit
Owner/State SPXS/US

Most Searched